Stations météo

Publicité
Konstanz, Allemagne (10929): Température de l'air & dewpoint: 13.01.2018 06:00:00 - 19.01.2018 06:00:00 (CET)Konstanz, Allemagne (10929): Température de l'air 5cm & Température de l'air -5cm: 13.01.2018 06:00:00 - 19.01.2018 06:00:00 (CET)Konstanz, Allemagne (10929): Température de l'air -20cm & Température de l'air -100cm: 13.01.2018 06:00:00 - 19.01.2018 06:00:00 (CET)Konstanz, Allemagne (10929): Vitesse du vent & gusts: 13.01.2018 06:00:00 - 19.01.2018 06:00:00 (CET)Konstanz, Allemagne (10929): Direction du vent: 13.01.2018 06:00:00 - 19.01.2018 06:00:00 (CET)Konstanz, Allemagne (10929): reduced air pressure: 13.01.2018 06:00:00 - 19.01.2018 06:00:00 (CET)Konstanz, Allemagne (10929): visibility: 13.01.2018 06:00:00 - 19.01.2018 06:00:00 (CET)Konstanz, Allemagne (10929): Ensoleillement: 13.01.2018 06:00:00 - 19.01.2018 06:00:00 (CET)Konstanz, Allemagne (10929): Quantités de précipitations: 13.01.2018 06:00:00 - 19.01.2018 06:00:00 (CET)
Date & Time tt [°C] td [°C] tt 5cm [°C] tt -5cm [°C] tt -20cm [°C] tt -100cm [°C] ff [km/h] ff [knt] fx [km/h] fx [knt] dd ppp [hPa] vv [km] sd [min] rr [mm]
19.01.2018 06:00:00 4,3 2,6 3,6 4,4 4,6 6,1 24 13 48 26 WNW 1010,3 1,4 0 0,8
19.01.2018 05:00:00 5,4 3,0 4,4 4,5 4,6 6,1 19 11 55 30 WSW 1008,9 15 0 0,2
19.01.2018 04:00:00 5,7 2,9 4,5 4,5 4,6 6,1 24 13 50 27 WSW 1008,3 70 0 0,2
19.01.2018 03:00:00 5,7 3,6 4,8 4,6 4,6 6,1 26 14 46 25 WSW 1008,6 22 0 0,7
19.01.2018 02:00:00 5,3 4,1 4,8 4,6 4,6 6,1 16 9 33 18 WNW 1008,4 10 0 1,2
19.01.2018 01:00:00 5,1 4,0 4,7 4,8 4,6 6,1 14 8 31 17 W 1007,9 24 0 1,1
19.01.2018 00:00:00 5,4 4,5 5,1 4,9 4,6 6,1 16 9 43 23 WNW 1007,9 8 0 3,4
18.01.2018 23:00:00 6,5 4,2 5,5 4,9 4,6 6,1 27 14 49 27 W 1007,5 9 0 1,0
18.01.2018 22:00:00 6,2 4,3 5,4 4,9 4,5 6,1 22 12 51 28 W 1008,3 8 0 1,6
18.01.2018 21:00:00 7,0 3,9 5,6 4,9 4,5 6,1 35 19 79 43 W 1008,1 5 0 0,1
18.01.2018 20:00:00 8,0 2,5 7,3 4,8 4,5 6,1 39 21 73 39 WSW 1006,4 70 0 0,0
18.01.2018 19:00:00 7,6 2,4 7,0 4,9 4,4 6,1 40 22 89 48 WSW 1006,7 70 0 0,0
18.01.2018 18:00:00 7,8 2,5 7,0 5,0 4,4 6,1 40 21 80 43 WSW 1006,6 70 0 0,0
18.01.2018 17:00:00 7,6 2,9 6,6 5,2 4,2 6,1 40 22 90 49 WSW 1007,1 70 0 0,0
18.01.2018 16:00:00 7,7 2,5 7,6 5,5 4,1 6,1 37 20 84 46 WSW 1006,9 70 0 0,0
18.01.2018 15:00:00 7,1 2,6 7,1 5,7 3,8 6,1 48 26 87 47 WSW 1007,6 39 12 0,0
18.01.2018 14:00:00 7,2 1,9 8,2 5,7 3,4 6,2 44 24 87 47 WSW 1007,2 26 59 0,0
18.01.2018 13:00:00 6,2 2,1 7,3 4,6 3,2 6,2 45 24 84 45 WSW 1008,8 25 31 0,0
18.01.2018 12:00:00 5,1 1,6 5,2 3,7 3,0 6,2 48 26 79 43 WSW 1009,7 24 11 0,0
18.01.2018 11:00:00 5,0 1,5 4,8 3,0 2,8 6,2 43 23 72 39 WSW 1009,8 33 12 0,0
18.01.2018 10:00:00 3,8 0,9 2,8 2,3 2,8 6,2 26 14 54 29 WSW 1011,2 70 0 0,2
18.01.2018 09:00:00 3,1 1,0 2,2 2,0 2,7 6,2 21 12 47 26 WSW 1011,5 21 0 0,7
18.01.2018 08:00:00 3,0 0,2 1,9 1,8 2,7 6,2 18 10 35 19 WSW 1012,1 52 0 0,2
18.01.2018 07:00:00 2,0 0,3 1,4 1,7 2,7 6,2 22 12 48 26 WSW 1013,3 27 0 0,4
18.01.2018 06:00:00 2,3 0,1 1,5 1,6 2,7 6,2 26 14 46 25 WSW 1014,3 14 0 0,1
18.01.2018 05:00:00 2,1 0,0 1,3 1,5 2,7 6,2 18 10 42 23 WSW 1015,2 70 0 0,0
18.01.2018 04:00:00 1,7 0,0 1,1 1,5 2,7 6,2 21 11 48 26 WSW 1016,4 32 0 0,3
18.01.2018 03:00:00 2,2 -0,8 1,5 1,3 2,8 6,2 26 14 48 26 WSW 1017,1 70 0 0,0
18.01.2018 02:00:00 1,6 -0,9 0,9 1,2 2,8 6,2 26 14 51 28 WSW 1017,2 50 0 0,0
18.01.2018 01:00:00 1,4 -1,1 0,8 1,3 2,9 6,2 21 12 52 28 WSW 1017,6 40 0 0,0
18.01.2018 00:00:00 2,4 -2,1 1,3 1,3 2,9 6,2 25 13 46 25 WSW 1017,4 32 0 0,0
17.01.2018 23:00:00 2,0 -1,6 1,0 1,4 3,0 6,1 24 13 44 24 WSW 1017,2 70 0 0,1
17.01.2018 22:00:00 1,2 -0,6 0,5 1,4 3,1 6,1 20 11 54 29 W 1017,6 4,8 0 0,1
17.01.2018 21:00:00 1,9 -1,4 1,4 1,4 3,2 6,1 23 13 47 25 WSW 1016,6 17 0 0,0
17.01.2018 20:00:00 1,8 -1,5 1,4 1,5 3,3 6,1 23 12 45 25 WSW 1016,0 64 0 0,0
17.01.2018 19:00:00 1,7 -1,8 1,2 1,7 3,4 6,1 21 12 47 25 WSW 1015,3 70 0 0,0
17.01.2018 18:00:00 1,5 -1,6 0,7 1,8 3,5 6,1 18 10 47 26 W 1015,0 70 0 0,0
17.01.2018 17:00:00 1,5 -1,9 0,4 2,3 3,5 6,1 23 13 55 30 WSW 1013,6 70 1 0,0
17.01.2018 16:00:00 2,3 -3,0 1,3 3,2 3,4 6,1 29 16 59 32 W 1013,0 70 56 0,0
17.01.2018 15:00:00 3,4 -3,1 3,5 3,3 3,3 6,1 26 14 50 27 W 1011,8 50 49 0,0
17.01.2018 14:00:00 2,5 -2,5 3,0 2,0 3,4 6,1 18 10 34 19 W 1011,1 54 26 0,2
17.01.2018 13:00:00 -0,1 -0,7 0,0 2,0 3,4 6,1 22 12 74 40 W 1011,1 0,7 1 1,1
17.01.2018 12:00:00 2,8 -1,5 3,5 2,7 3,4 6,1 29 15 58 31 WSW 1008,7 70 47 0,3
17.01.2018 11:00:00 1,2 -0,8 0,5 1,8 3,5 6,1 24 13 56 31 W 1008,8 3,9 0 0,4
17.01.2018 10:00:00 2,0 -1,0 1,3 2,0 3,5 6,1 23 12 48 26 W 1007,1 60 0 0,1
17.01.2018 09:00:00 2,2 -1,0 1,4 1,8 3,6 6,1 30 16 74 40 W 1005,5 70 3 0,0
17.01.2018 08:00:00 2,7 -1,4 1,3 1,9 3,8 6,1 29 16 61 33 W 1003,8 70 0 0,0
17.01.2018 07:00:00 2,9 -0,5 1,9 2,1 3,9 6,1 27 15 47 25 WSW 1003,0 70 0 0,0
17.01.2018 06:00:00 2,4 0,1 1,3 1,9 4,2 6,1 23 12 47 25 WSW 1002,4 70 0 0,0
17.01.2018 05:00:00 0,9 0,2 0,1 2,3 4,4 6,1 11 6 45 25 WSW 1002,0 70 0 4,6
17.01.2018 04:00:00 2,7 1,4 2,3 3,5 4,5 6,1 29 15 57 31 W 1001,2 2,9 0 0,6
17.01.2018 03:00:00 3,6 0,9 2,7 3,7 4,6 6,1 34 18 57 31 WSW 1001,1 18 0 0,1
17.01.2018 02:00:00 4,4 1,5 3,1 3,8 4,6 6,1 24 13 42 23 WSW 1000,4 70 0 0,1
17.01.2018 01:00:00 3,8 1,9 3,0 4,0 4,7 6,1 17 9 54 29 WSW 1001,1 36 0 0,4
17.01.2018 00:00:00 4,8 1,6 3,9 4,2 4,8 6,1 27 15 56 31 WSW 1002,5 31 0 0,0
16.01.2018 23:00:00 5,3 2,3 4,0 4,3 4,8 6,1 18 10 35 19 WSW 1002,2 70 0 0,1
16.01.2018 22:00:00 4,6 2,5 3,9 4,4 4,9 6,2 21 12 66 36 WNW 1002,9 17 0 0,4
16.01.2018 21:00:00 5,5 3,5 4,6 4,6 4,9 6,2 20 11 43 23 WSW 1001,9 38 0 0,2
16.01.2018 20:00:00 5,6 2,7 4,2 4,7 5,0 6,2 14 8 43 23 WSW 1001,9 70 0 0,0
16.01.2018 19:00:00 5,4 3,2 4,4 5,0 5,1 6,2 21 12 46 25 WSW 1003,0 50 0 0,8
16.01.2018 18:00:00 6,0 3,4 4,9 5,2 5,1 6,2 17 9 40 21 W 1002,9 34 0 0,0
16.01.2018 17:00:00 5,9 3,0 4,7 5,5 5,1 6,2 24 13 56 30 W 1003,0 70 0 0,2
16.01.2018 16:00:00 6,0 3,5 5,2 6,1 5,0 6,2 30 16 59 32 W 1002,7 58 0 3,9
16.01.2018 15:00:00 8,6 4,5 6,9 6,7 4,8 6,2 26 14 81 44 W 1000,8 11 8 0,1
16.01.2018 14:00:00 7,9 5,0 7,1 6,3 4,6 6,2 36 19 66 36 WSW 1000,1 10 0 1,3
16.01.2018 13:00:00 7,3 4,7 6,1 6,0 4,4 6,2 34 18 75 40 WSW 1001,4 11 2 0,3
16.01.2018 12:00:00 7,5 4,5 7,2 5,8 4,1 6,2 29 16 61 33 WSW 1002,2 27 17 0,4
16.01.2018 11:00:00 8,7 3,3 9,5 5,3 3,9 6,2 32 17 63 34 WSW 1002,6 70 13 0,0
16.01.2018 10:00:00 7,5 3,4 6,4 4,5 3,8 6,2 29 16 69 37 WSW 1002,6 56 25 0,0
16.01.2018 09:00:00 6,9 3,4 5,0 4,1 3,7 6,2 40 22 75 40 WSW 1002,6 70 0 0,7
16.01.2018 08:00:00 7,4 2,5 6,2 3,8 3,6 6,2 34 18 63 34 WSW 1002,3 70 0 0,0
16.01.2018 07:00:00 6,9 2,7 5,0 3,7 3,6 6,2 35 19 67 36 WSW 1002,5 70 0 0,5
16.01.2018 06:00:00 6,5 2,8 4,9 3,6 3,5 6,2 27 15 65 35 WSW 1003,7 28 0 0,3
16.01.2018 05:00:00 6,6 2,1 5,5 3,3 3,4 6,2 31 17 62 33 WSW 1004,4 70 0 0,0
16.01.2018 04:00:00 6,5 2,1 5,6 3,2 3,4 6,3 29 15 54 29 WSW 1005,1 70 0 0,0
16.01.2018 03:00:00 6,1 2,5 4,8 3,1 3,3 6,3 16 8 31 17 WSW 1005,8 70 0 0,1
16.01.2018 02:00:00 4,3 2,2 3,4 2,9 3,3 6,3 8 4 20 11 W 1006,8 31 0 0,2
16.01.2018 01:00:00 3,5 2,1 2,9 2,9 3,3 6,3 11 6 32 18 SSW 1007,5 15 0 0,7
16.01.2018 00:00:00 3,3 1,6 2,6 2,9 3,3 6,3 19 10 31 17 SSW 1008,5 15 0 0,7
15.01.2018 23:00:00 4,0 1,6 2,9 2,9 3,2 6,3 15 8 31 17 SW 1009,1 18 0 0,8
15.01.2018 22:00:00 4,7 1,5 3,2 2,9 3,2 6,3 19 10 41 22 SW 1009,8 12 0 0,5
15.01.2018 21:00:00 5,6 0,7 3,6 2,7 3,2 6,3 18 10 51 27 SW 1010,2 19 0 0,1
15.01.2018 20:00:00 6,3 -0,3 5,5 2,3 3,2 6,3 29 15 45 24 SW 1010,0 34 0 0,0
15.01.2018 19:00:00 2,2 -0,4 1,6 2,1 3,3 6,3 8 4 16 9 SSW 1011,8 12 0 0,0
15.01.2018 18:00:00 2,1 -0,4 1,2 2,5 3,3 6,3 5 3 14 8 SSE 1012,8 10 0 0,0
15.01.2018 17:00:00 2,5 -1,0 1,9 2,9 3,3 6,3 3 2 20 11 SE 1014,1 12 3 0,0
15.01.2018 16:00:00 1,4 -1,5 1,5 3,4 3,2 6,4 7 4 14 8 SSE 1016,0 10 2 0,0
15.01.2018 15:00:00 1,6 -2,2 2,5 3,6 3,0 6,4 5 3 9 5 S 1017,3 11 1 0,0
15.01.2018 14:00:00 0,9 -2,6 1,8 3,5 2,8 6,4 3 2 10 6 ESE 1018,4 11 1 0,0
15.01.2018 13:00:00 1,0 -2,6 2,0 3,4 2,6 6,4 6 3 9 5 E 1019,6 10 0 0,0
15.01.2018 12:00:00 0,6 -3,4 1,4 2,9 2,4 6,4 5 3 8 4 S 1021,2 11 22 0,0
15.01.2018 11:00:00 -0,5 -3,6 0,1 1,4 2,3 6,4 4 2 10 5 WNW 1022,7 10 4 0,0
15.01.2018 10:00:00 -0,5 -3,2 -0,2 1,0 2,4 6,4 4 2 11 6 SW 1023,0 9 0 0,0
15.01.2018 09:00:00 -0,9 -3,3 -0,8 0,7 2,4 6,4 6 4 13 7 SW 1023,4 9 0 0,0
15.01.2018 08:00:00 -0,9 -3,1 -0,9 0,8 2,5 6,4 8 4 14 8 SW 1023,5 8 0 0,0
15.01.2018 07:00:00 -0,9 -3,1 -0,9 0,9 2,5 6,4 8 4 13 7 SSW 1023,7 9 0 0,0
15.01.2018 06:00:00 -0,6 -3,0 -0,6 0,9 2,6 6,4 6 3 15 8 SW 1023,8 9 0 0,0
15.01.2018 05:00:00 -0,5 -3,3 -0,4 1,0 2,6 6,4 9 5 13 7 WSW 1023,9 10 0 0,0
15.01.2018 04:00:00 -0,3 -2,6 -0,3 1,1 2,7 6,5 7 4 16 9 SSW 1024,1 9 0 0,0
15.01.2018 03:00:00 -0,4 -3,1 -0,4 1,2 2,7 6,5 9 5 17 9 WSW 1024,4 10 0 0,0
15.01.2018 02:00:00 0,1 -2,8 -0,1 1,2 2,8 6,5 9 5 16 9 SW 1024,6 11 0 0,0
15.01.2018 01:00:00 0,6 -2,7 0,2 1,4 2,8 6,5 6 4 10 6 WSW 1024,5 11 0 0,0
15.01.2018 00:00:00 1,0 -2,4 0,6 1,6 2,9 6,5 6 3 10 5 SSW 1024,8 14 0 0,0
14.01.2018 23:00:00 1,3 -2,3 1,0 1,7 2,9 6,5 4 2 15 8 SSW 1024,4 15 0 0,0
14.01.2018 22:00:00 1,7 -2,2 1,2 1,8 2,9 6,5 5 3 7 4 SSW 1024,4 17 0 0,0
14.01.2018 21:00:00 1,7 -2,1 1,3 1,8 2,9 6,5 3 1 7 4 E 1024,1 18 0 0,0
14.01.2018 20:00:00 1,8 -2,0 1,4 1,9 2,9 6,5 5 3 7 4 E 1023,9 18 0 0,0
14.01.2018 19:00:00 1,9 -2,1 1,5 2,0 2,9 6,5 2 1 7 4 N 1023,6 19 0 0,0
14.01.2018 18:00:00 1,9 -2,3 1,5 2,1 2,8 6,5 4 2 6 4 NE 1023,1 20 0 0,0
14.01.2018 17:00:00 2,0 -1,8 1,8 2,3 2,8 6,5 3 2 7 4 SSE 1022,7 17 0 0,0
14.01.2018 16:00:00 2,2 -1,5 2,1 2,4 2,6 6,5 4 2 8 4 E 1022,4 16 0 0,0
14.01.2018 15:00:00 2,1 -1,8 2,4 2,2 2,5 6,5 4 2 8 4 ESE 1022,0 16 0 0,0
14.01.2018 14:00:00 2,1 -1,1 2,2 1,6 2,5 6,6 5 3 8 4 E 1021,9 14 0 0,0
14.01.2018 13:00:00 2,0 -1,1 1,6 0,9 2,4 6,6 5 3 8 4 E 1022,1 12 0 0,0
14.01.2018 12:00:00 1,8 -1,0 1,2 0,7 2,5 6,6 4 2 5 3 W 1022,6 10 0 0,0
14.01.2018 11:00:00 1,5 -1,1 0,9 0,6 2,5 6,6 3 1 5 3 SE 1023,0 10 15 0,0
14.01.2018 10:00:00 0,6 -1,5 0,0 0,6 2,6 6,6 3 2 4 2 W 1023,0 8 27 0,0
14.01.2018 09:00:00 -0,7 -1,7 -0,9 0,6 2,6 6,6 3 2 8 4 NW 1022,9 6 0 0,0
14.01.2018 08:00:00 -1,1 -2,1 -1,3 0,6 2,7 6,6 6 3 9 5 W 1022,7 6 0 0,0
14.01.2018 07:00:00 -1,2 -2,0 -1,3 0,6 2,8 6,6 6 3 10 5 WNW 1022,6 4,6 0 0,0
14.01.2018 06:00:00 -1,8 -2,3 -2,2 0,6 2,8 6,6 9 5 11 6 W 1022,4 1,7 0 0,0
14.01.2018 05:00:00 -2,0 -2,9 -3,5 0,7 2,9 6,6 8 4 8 5 WNW 1022,3 8 0 0,0
14.01.2018 04:00:00 -2,0 -2,9 -3,7 0,8 3,0 6,6 6 3 9 5 WNW 1022,3 9 0 0,0
14.01.2018 03:00:00 -1,7 -2,7 -3,5 0,9 3,1 6,6 6 3 8 5 WNW 1022,3 11 0 0,0
14.01.2018 02:00:00 -1,7 -2,9 -3,5 1,0 3,2 6,6 4 2 8 5 N 1022,4 11 0 0,0
14.01.2018 01:00:00 -1,5 -2,7 -3,3 1,1 3,3 6,6 6 3 8 4 N 1022,5 13 0 0,0
14.01.2018 00:00:00 -1,2 -2,5 -3,0 1,2 3,5 6,6 3 2 7 4 N 1022,7 13 0 0,0
13.01.2018 23:00:00 -0,8 -2,5 -2,9 1,3 3,6 6,6 5 3 9 5 NNE 1023,0 18 0 0,0
13.01.2018 22:00:00 -0,4 -2,0 -2,8 1,4 3,8 6,6 6 4 10 5 NNE 1023,1 16 0 0,0
13.01.2018 21:00:00 0,2 -1,8 -2,5 1,5 4,1 6,6 6 4 10 5 N 1023,1 18 0 0,0
13.01.2018 20:00:00 1,1 -2,0 -2,6 2,0 4,3 6,6 6 4 8 5 N 1022,9 23 0 0,0
13.01.2018 19:00:00 1,4 -2,2 -1,6 2,7 4,4 6,6 4 2 9 5 N 1023,0 26 0 0,0
13.01.2018 18:00:00 2,7 -2,0 1,4 3,6 4,5 6,6 5 3 13 7 NNE 1022,9 28 0 0,0
13.01.2018 17:00:00 3,2 -1,8 2,9 4,1 4,5 6,6 7 4 16 9 NNE 1023,0 28 0 0,0
13.01.2018 16:00:00 3,8 -1,9 3,7 4,5 4,4 6,6 4 2 8 5 NE 1023,0 33 0 0,0
13.01.2018 15:00:00 4,0 -2,3 4,1 4,7 4,3 6,6 3 2 10 5 E 1023,0 34 0 0,0
13.01.2018 14:00:00 4,1 -1,7 4,5 4,6 4,1 6,6 4 2 13 7 SSE 1023,2 32 0 0,0
13.01.2018 13:00:00 4,0 -1,5 4,5 4,2 4,0 6,6 8 4 15 8 ESE 1023,6 28 0 0,0
13.01.2018 12:00:00 3,9 -1,1 4,2 3,8 3,9 6,6 7 4 12 7 E 1024,1 26 0 0,0
13.01.2018 11:00:00 3,5 -1,0 3,6 3,2 3,9 6,6 5 3 9 5 ESE 1024,5 25 0 0,0
13.01.2018 10:00:00 3,0 -1,3 2,9 2,8 3,9 6,6 6 3 11 6 E 1024,6 27 0 0,0
13.01.2018 09:00:00 2,8 -1,6 2,6 2,7 3,9 6,6 6 4 16 9 ENE 1024,9 25 0 0,0
13.01.2018 08:00:00 2,7 -1,5 2,4 2,7 4,0 6,6 8 4 18 10 NE 1024,9 29 0 0,0
13.01.2018 07:00:00 2,7 -1,2 2,4 2,8 4,0 6,6 10 5 17 9 NE 1025,1 28 0 0,0
13.01.2018 06:00:00 2,9 -1,2 2,6 2,8 4,1 6,6 11 6 19 10 ENE 1025,2 28 0 0,0

tt = Température de l'air
td = dewpoint
tt 5cm = Température de l'air 5cm
tt -5cm = Température de l'air -5cm
tt -20cm = Température de l'air -20cm
tt -100cm = Température de l'air -100cm
ff = Vitesse du vent
fx = gusts
dd = Direction du vent
ppp = reduced air pressure
vv = visibility
sd = Ensoleillement
rr = Quantités de précipitations

stations d'obs. à proximité